Home   Weather   Minden   Past weeks

Flag for Germany Past Weather in Minden, North Rhine-Westphalia, Germany — Yesterday and Last 2 Weeks

Now
66 °F

Passing clouds.


Feels Like: 66 °F
Forecast: 54 / 72 °F
Wind: 14 mph from South

Location: Bueckeburg

Current Time: Aug 31, 2016 at 10:15:03 AM

Latest Report: Aug 31, 2016 at 9:20 AM


Visibility: N/A

Pressure: 30.18 "Hg

Humidity: 49%

Dew Point: 46 °F

Location of MindenLocation

Past Weather in Minden — Graph

°F

Minden Temperature Yesterday

Maximum temperature yesterday: 73 °F (at 3:20 PM)
Minimum temperature yesterday: 48 °F (at 6:20 AM)
Average temperature yesterday: 62 °F

High & Low Weather Summary for the Past Weeks

 TemperatureHumidityPressure
High93 °F (Aug 26, 4:20 PM)100% (Aug 17, 4:20 AM)30.33 "Hg (Aug 17, 4:20 AM)
Low46 °F (Aug 17, 5:01 AM)23% (Aug 25, 5:20 PM)29.80 "Hg (Aug 18, 2:20 PM)
Average69 °F66%30.05 "Hg
* Reported Aug 16 8:20 AM — Aug 31 8:20 AM, Minden, Weather by CustomWeather, © 2016

Note: Actual official high and low records may vary slightly from our data, if they occured in-between our weather recording intervals... More about our weather records

Advertising

Minden Weather History for the Previous 24 Hours

Scroll right to see more
 ConditionsComfort  
Time TempWeatherWind HumidityBarometerVisibility
8:20 AM
Wed, Aug 31
63 °FPassing clouds.9 mph59%30.18 "HgN/A
7:20 AM55 °FPassing clouds.2 mph72%30.18 "HgN/A
6:20 AM55 °FPassing clouds.5 mph72%30.18 "HgN/A
5:20 AM55 °FCool.3 mph72%30.21 "HgN/A
4:20 AM55 °FCool.5 mph77%30.21 "HgN/A
3:20 AM54 °FCool.3 mph88%30.21 "HgN/A
2:20 AM52 °FCool.2 mph88%30.24 "HgN/A
1:20 AM54 °FCool.1 mph88%30.24 "HgN/A
12:20 AM55 °FCool.2 mph82%30.24 "HgN/A
11:20 PM
Tue, Aug 30
57 °FCool.2 mph77%30.24 "HgN/A
10:20 PM59 °FPassing clouds.1 mph72%30.27 "HgN/A
9:20 PM63 °FPassing clouds.1 mph64%30.24 "HgN/A
8:20 PM68 °FPassing clouds.3 mph53%30.24 "HgN/A
7:20 PM72 °FPassing clouds.5 mph41%30.24 "HgN/A
6:20 PM73 °FPassing clouds.5 mph38%30.24 "HgN/A
5:20 PM73 °FPassing clouds.3 mph36%30.27 "HgN/A
4:20 PM73 °FPassing clouds.3 mph38%30.27 "HgN/A
3:20 PM73 °FPassing clouds.6 mph36%30.30 "HgN/A
2:20 PM72 °FPassing clouds.5 mph41%30.30 "HgN/A
1:20 PM70 °FPassing clouds.8 mph43%30.30 "HgN/A
12:20 PM68 °FPassing clouds.5 mph49%30.33 "HgN/A
11:20 AM66 °FPassing clouds.3 mph56%30.33 "HgN/A
10:20 AM64 °FPassing clouds.2 mph64%30.33 "HgN/A
Weather by CustomWeather, © 2016

See weather overviewHow to use our weather pages